| time (UTC) | temp C | wind direction | speed KPH | gust KPH | rain 1hr cm | rain 24hr cm | rain mn cm | humidity % | barometer mb |
| 20260507093506 | 13 | 355 | 0.0 | 0.0 | 0.00 | 0.00 | 0.00 | 91 | 1015.0 |
| 20260507093008 | 13 | 341 | 0.0 | 0.0 | 0.00 | 0.00 | 0.00 | 91 | 1014.9 |
| 20260507092506 | 13 | 348 | 0.0 | 0.0 | 0.00 | 0.00 | 0.00 | 91 | 1015.0 |
| 20260507092007 | 13 | 348 | 0.0 | 0.0 | 0.00 | 0.00 | 0.00 | 91 | 1015.1 |
| 20260507091506 | 13 | 348 | 0.0 | 0.0 | 0.00 | 0.00 | 0.00 | 91 | 1015.3 |
| 20260507091007 | 13 | 234 | 0.0 | 0.0 | 0.00 | 0.00 | 0.00 | 91 | 1015.2 |
| 20260507090506 | 13 | 18 | 0.0 | 1.6 | 0.00 | 0.00 | 0.00 | 91 | 1015.0 |
| 20260507090009 | 13 | 18 | 1.6 | 3.2 | 0.00 | 0.00 | 0.00 | 91 | 1014.9 |
| 20260507085506 | 13 | 18 | 1.6 | 3.2 | 0.00 | 0.00 | 0.00 | 91 | 1015.0 |
| 20260507084506 | 13 | 18 | 1.6 | 4.8 | 0.00 | 0.00 | 0.00 | 91 | 1015.1 |
| 20260507084007 | 13 | 342 | 1.6 | 4.8 | 0.00 | 0.00 | 0.00 | 91 | 1015.2 |
| 20260507083505 | 13 | 21 | 0.0 | 3.2 | 0.00 | 0.00 | 0.00 | 91 | 1014.8 |
| 20260507083007 | 13 | 45 | 0.0 | 3.2 | 0.00 | 0.00 | 0.00 | 91 | 1015.0 |
| 20260507082507 | 13 | 93 | 0.0 | 0.0 | 0.00 | 0.00 | 0.00 | 91 | 1014.9 |
| 20260507082006 | 13 | 13 | 0.0 | 0.0 | 0.00 | 0.00 | 0.00 | 91 | 1015.1 |
| 20260507081506 | 13 | 5 | 0.0 | 0.0 | 0.00 | 0.00 | 0.00 | 91 | 1015.1 |
| 20260507081006 | 13 | 12 | 0.0 | 3.2 | 0.00 | 0.00 | 0.00 | 91 | 1015.0 |
| 20260507080506 | 13 | 12 | 1.6 | 6.4 | 0.00 | 0.00 | 0.00 | 91 | 1015.0 |
| 20260507080010 | 13 | 12 | 0.0 | 6.4 | 0.00 | 0.00 | 0.00 | 91 | 1014.7 |
| 20260507075507 | 13 | 34 | 0.0 | 0.0 | 0.00 | 0.00 | 0.00 | 91 | 1014.7 |
| 20260507074508 | 13 | 35 | 0.0 | 0.0 | 0.00 | 0.00 | 0.00 | 91 | 1014.8 |
| 20260507074008 | 13 | 17 | 0.0 | 0.0 | 0.00 | 0.00 | 0.00 | 91 | 1014.6 |
| 20260507073506 | 13 | 17 | 0.0 | 0.0 | 0.00 | 0.00 | 0.00 | 91 | 1014.4 |
| 20260507073008 | 13 | 18 | 1.6 | 4.8 | 0.00 | 0.00 | 0.00 | 91 | 1014.5 |
| 20260507071507 | 13 | 76 | 0.0 | 0.0 | 0.00 | 0.00 | 0.00 | 90 | 1014.9 |
| 20260507071008 | 13 | 78 | 0.0 | 0.0 | 0.00 | 0.00 | 0.00 | 90 | 1014.9 |
| 20260507070506 | 14 | 5 | 1.6 | 3.2 | 0.00 | 0.00 | 0.00 | 90 | 1015.2 |
| 20260507070013 | 14 | 5 | 1.6 | 4.8 | 0.00 | 0.00 | 0.00 | 90 | 1015.4 |
| 20260507065507 | 14 | 12 | 1.6 | 6.4 | 0.00 | 0.00 | 0.00 | 90 | 1015.2 |
| 20260507065006 | 14 | 18 | 0.0 | 6.4 | 0.00 | 0.00 | 0.00 | 90 | 1015.2 |
| 20260507064508 | 14 | 21 | 0.0 | 0.0 | 0.00 | 0.00 | 0.00 | 90 | 1015.1 |
| 20260507063009 | 14 | 26 | 0.0 | 0.0 | 0.00 | 0.00 | 0.00 | 90 | 1014.8 |
| 20260507061506 | 14 | 9 | 1.6 | 4.8 | 0.00 | 0.00 | 0.00 | 90 | 1014.9 |
| 20260507061007 | 14 | 5 | 1.6 | 4.8 | 0.00 | 0.00 | 0.00 | 90 | 1015.1 |
| 20260507060506 | 14 | 23 | 1.6 | 4.8 | 0.00 | 0.00 | 0.00 | 90 | 1015.2 |
| 20260507055508 | 15 | 284 | 1.6 | 4.8 | 0.00 | 0.00 | 0.00 | 90 | 1014.9 |
| 20260507055009 | 15 | 355 | 1.6 | 4.8 | 0.00 | 0.00 | 0.00 | 90 | 1014.7 |
| 20260507054509 | 15 | 22 | 3.2 | 4.8 | 0.00 | 0.00 | 0.00 | 90 | 1014.4 |
| 20260507054009 | 15 | 22 | 1.6 | 6.4 | 0.00 | 0.00 | 0.00 | 90 | 1014.6 |
| 20260507053509 | 15 | 5 | 0.0 | 6.4 | 0.00 | 0.00 | 0.00 | 90 | 1014.6 |
| 20260507053009 | 15 | 45 | 0.0 | 3.2 | 0.00 | 0.00 | 0.00 | 90 | 1014.5 |
| 20260507052507 | 15 | 21 | 1.6 | 4.8 | 0.00 | 0.00 | 0.00 | 90 | 1014.7 |
| 20260507052008 | 15 | 22 | 1.6 | 6.4 | 0.00 | 0.00 | 0.00 | 90 | 1014.7 |
| 20260507051010 | 15 | 167 | 1.6 | 6.4 | 0.00 | 0.00 | 0.00 | 90 | 1014.4 |
| 20260507050508 | 15 | 23 | 1.6 | 4.8 | 0.00 | 0.00 | 0.00 | 90 | 1014.3 |
| 20260507050015 | 15 | 40 | 1.6 | 4.8 | 0.00 | 0.00 | 0.00 | 90 | 1014.2 |
| 20260507045509 | 15 | 22 | 1.6 | 8.0 | 0.00 | 0.00 | 0.00 | 90 | 1014.1 |
| 20260507045009 | 15 | 286 | 1.6 | 8.0 | 0.00 | 0.00 | 0.00 | 90 | 1013.9 |
| 20260507044509 | 15 | 19 | 0.0 | 8.0 | 0.00 | 0.00 | 0.00 | 90 | 1013.7 |
| 20260507044009 | 15 | 22 | 1.6 | 4.8 | 0.00 | 0.00 | 0.00 | 90 | 1013.7 |
| 20260507042509 | 15 | 10 | 1.6 | 4.8 | 0.00 | 0.00 | 0.00 | 90 | 1013.8 |
| 20260507042010 | 16 | 13 | 1.6 | 6.4 | 0.00 | 0.00 | 0.00 | 90 | 1013.8 |
| 20260507041511 | 16 | 16 | 1.6 | 6.4 | 0.00 | 0.00 | 0.00 | 90 | 1013.8 |
| 20260507041009 | 16 | 17 | 1.6 | 4.8 | 0.00 | 0.00 | 0.00 | 90 | 1013.9 |
| 20260507040510 | 16 | 17 | 1.6 | 6.4 | 0.00 | 0.00 | 0.00 | 90 | 1013.9 |
| 20260507040011 | 16 | 17 | 1.6 | 6.4 | 0.00 | 0.00 | 0.00 | 90 | 1013.8 |
| 20260507035508 | 16 | 9 | 1.6 | 6.4 | 0.00 | 0.00 | 0.00 | 90 | 1013.8 |
| 20260507035008 | 16 | 19 | 3.2 | 6.4 | 0.00 | 0.00 | 0.00 | 90 | 1013.8 |
| 20260507034509 | 16 | 19 | 1.6 | 6.4 | 0.00 | 0.00 | 0.00 | 90 | 1013.7 |
| 20260507034009 | 16 | 30 | 0.0 | 4.8 | 0.00 | 0.00 | 0.00 | 90 | 1013.6 |
| 20260507033508 | 16 | 15 | 0.0 | 4.8 | 0.00 | 0.00 | 0.00 | 90 | 1013.5 |
| 20260507033011 | 16 | 15 | 0.0 | 4.8 | 0.00 | 0.00 | 0.00 | 90 | 1013.4 |
| 20260507032508 | 16 | 18 | 0.0 | 3.2 | 0.00 | 0.00 | 0.00 | 90 | 1013.4 |
| 20260507031508 | 16 | 18 | 1.6 | 6.4 | 0.00 | 0.00 | 0.00 | 90 | 1013.1 |
| 20260507030507 | 16 | 360 | 1.6 | 4.8 | 0.00 | 0.00 | 0.00 | 91 | 1013.0 |
| 20260507025507 | 16 | 9 | 3.2 | 6.4 | 0.00 | 0.00 | 0.00 | 91 | 1012.9 |
| 20260507025008 | 16 | 40 | 3.2 | 6.4 | 0.00 | 0.00 | 0.00 | 90 | 1012.9 |
| 20260507024508 | 16 | 37 | 3.2 | 6.4 | 0.00 | 0.00 | 0.00 | 90 | 1012.9 |
| 20260507024009 | 16 | 19 | 3.2 | 8.0 | 0.00 | 0.00 | 0.00 | 90 | 1012.8 |
| 20260507023509 | 17 | 23 | 3.2 | 8.0 | 0.00 | 0.00 | 0.00 | 90 | 1012.8 |
| 20260507023012 | 17 | 5 | 1.6 | 4.8 | 0.00 | 0.00 | 0.00 | 90 | 1012.9 |
| 20260507022509 | 17 | 333 | 0.0 | 3.2 | 0.00 | 0.00 | 0.00 | 90 | 1012.7 |
| 20260507022009 | 17 | 19 | 1.6 | 4.8 | 0.00 | 0.00 | 0.00 | 90 | 1013.0 |
| 20260507021509 | 17 | 28 | 3.2 | 8.0 | 0.00 | 0.00 | 0.00 | 90 | 1012.7 |
| 20260507021010 | 17 | 13 | 3.2 | 8.0 | 0.00 | 0.00 | 0.00 | 90 | 1012.3 |
| 20260507020509 | 17 | 19 | 1.6 | 4.8 | 0.00 | 0.00 | 0.00 | 90 | 1012.3 |
| 20260507020011 | 17 | 9 | 1.6 | 6.4 | 0.00 | 0.00 | 0.00 | 90 | 1012.3 |
| 20260507015508 | 17 | 13 | 1.6 | 6.4 | 0.00 | 0.00 | 0.00 | 90 | 1012.2 |
| 20260507014508 | 17 | 13 | 1.6 | 8.0 | 0.00 | 0.00 | 0.00 | 90 | 1011.8 |
| 20260507014008 | 17 | 17 | 1.6 | 4.8 | 0.00 | 0.00 | 0.00 | 90 | 1011.9 |
| 20260507013508 | 18 | 18 | 1.6 | 6.4 | 0.00 | 0.00 | 0.00 | 90 | 1011.5 |
| 20260507013009 | 18 | 5 | 1.6 | 6.4 | 0.00 | 0.00 | 0.00 | 90 | 1011.4 |
| 20260507011009 | 18 | 30 | 3.2 | 6.4 | 0.00 | 0.00 | 0.00 | 90 | 1010.6 |
| 20260507010506 | 18 | 23 | 3.2 | 6.4 | 0.00 | 0.00 | 0.00 | 90 | 1010.2 |
| 20260507010009 | 18 | 19 | 3.2 | 6.4 | 0.00 | 0.00 | 0.00 | 90 | 1010.2 |
| 20260507005009 | 18 | 32 | 1.6 | 6.4 | 0.00 | 0.00 | 0.00 | 90 | 1010.3 |
| 20260507004507 | 18 | 24 | 0.0 | 0.0 | 0.00 | 0.00 | 0.00 | 90 | 1010.2 |
| 20260507004008 | 19 | 26 | 1.6 | 3.2 | 0.00 | 0.00 | 0.00 | 90 | 1010.6 |
| 20260507003508 | 19 | 28 | 1.6 | 6.4 | 0.00 | 0.00 | 0.00 | 89 | 1010.5 |
| 20260507003010 | 19 | 22 | 1.6 | 6.4 | 0.00 | 0.00 | 0.00 | 89 | 1010.4 |
| 20260507002508 | 20 | 33 | 3.2 | 8.0 | 0.00 | 0.00 | 0.00 | 88 | 1010.2 |
| 20260507001509 | 20 | 39 | 4.8 | 12.9 | 0.00 | 0.00 | 0.00 | 88 | 1009.7 |
| 20260507001010 | 20 | 20 | 4.8 | 12.9 | 0.00 | 0.00 | 0.00 | 88 | 1009.6 |
| 20260507000512 | 21 | 23 | 3.2 | 6.4 | 0.00 | 0.00 | 0.00 | 87 | 1010.0 |
| 20260507000011 | 21 | 32 | 4.8 | 9.7 | 0.00 | 0.00 | 0.00 | 87 | 1009.8 |
| 20260506235512 | 22 | 33 | 4.8 | 9.7 | 0.00 | 0.00 | 0.00 | 86 | 1009.6 |
| 20260506235007 | 22 | 22 | 3.2 | 9.7 | 0.00 | 0.00 | 0.00 | 85 | 1009.7 |
| 20260506234508 | 23 | 345 | 3.2 | 8.0 | 0.00 | 0.00 | 0.00 | 85 | 1009.6 |
| 20260506234008 | 24 | 15 | 1.6 | 8.0 | 0.00 | 0.00 | 0.00 | 86 | 1009.7 |
| 20260506233507 | 25 | 9 | 0.0 | 6.4 | 0.00 | 0.00 | 0.00 | 91 | 1009.4 |
| 20260506233008 | 25 | 233 | 0.0 | 0.0 | 0.00 | 0.00 | 0.00 | 91 | 1009.3 |
| 20260506232507 | 25 | 229 | 0.0 | 0.0 | 0.00 | 0.00 | 0.00 | 91 | 1009.3 |
| 20260506232008 | 25 | 229 | 0.0 | 0.0 | 0.00 | 0.00 | 0.00 | 90 | 1009.4 |
| 20260506231507 | 25 | 229 | 0.0 | 0.0 | 0.00 | 0.00 | 0.00 | 90 | 1009.2 |
| 20260506231007 | 25 | 229 | 0.0 | 0.0 | 0.00 | 0.00 | 0.00 | 90 | 1009.1 |
| 20260506230506 | 25 | 229 | 0.0 | 0.0 | 0.00 | 0.00 | 0.00 | 89 | 1009.0 |
| 20260506230008 | 25 | 229 | 0.0 | 0.0 | 0.00 | 0.00 | 0.00 | 89 | 1009.1 |
| 20260506225506 | 25 | 229 | 0.0 | 0.0 | 0.00 | 0.00 | 0.00 | 89 | 1008.8 |
| 20260506225009 | 25 | 229 | 0.0 | 0.0 | 0.00 | 0.00 | 0.00 | 89 | 1008.9 |
| 20260506224008 | 25 | 229 | 0.0 | 0.0 | 0.00 | 0.00 | 0.00 | 89 | 1008.8 |
| 20260506223506 | 25 | 230 | 0.0 | 0.0 | 0.00 | 0.00 | 0.00 | 89 | 1008.8 |
| 20260506223009 | 25 | 230 | 0.0 | 0.0 | 0.00 | 0.00 | 0.00 | 89 | 1008.8 |
| 20260506222007 | 25 | 226 | 0.0 | 0.0 | 0.00 | 0.00 | 0.00 | 89 | 1008.6 |
| 20260506221008 | 25 | 237 | 0.0 | 0.0 | 0.00 | 0.00 | 0.00 | 88 | 1008.8 |
| 20260506220506 | 25 | 239 | 0.0 | 0.0 | 0.00 | 0.00 | 0.00 | 88 | 1008.9 |
| 20260506220010 | 25 | 239 | 0.0 | 0.0 | 0.00 | 0.00 | 0.00 | 88 | 1009.0 |
| 20260506215007 | 25 | 242 | 0.0 | 0.0 | 0.00 | 0.00 | 0.00 | 88 | 1009.0 |
| 20260506214507 | 25 | 242 | 0.0 | 1.6 | 0.00 | 0.00 | 0.00 | 88 | 1009.1 |
| 20260506213506 | 26 | 242 | 1.6 | 3.2 | 0.00 | 0.00 | 0.00 | 87 | 1009.1 |
| 20260506213010 | 26 | 243 | 1.6 | 6.4 | 0.00 | 0.00 | 0.00 | 86 | 1009.0 |
| 20260506212507 | 26 | 236 | 1.6 | 6.4 | 0.00 | 0.00 | 0.00 | 86 | 1009.1 |
| 20260506211508 | 26 | 173 | 3.2 | 12.9 | 0.00 | 0.00 | 0.00 | 87 | 1008.9 |
| 20260506210010 | 26 | 242 | 1.6 | 4.8 | 0.00 | 0.00 | 0.00 | 86 | 1009.1 |
| 20260506205009 | 26 | 102 | 1.6 | 8.0 | 0.00 | 0.00 | 0.00 | 85 | 1009.4 |
| 20260506204509 | 26 | 165 | 1.6 | 6.4 | 0.00 | 0.00 | 0.00 | 85 | 1009.6 |
| 20260506203506 | 26 | 86 | 1.6 | 4.8 | 0.00 | 0.00 | 0.00 | 86 | 1009.2 |
| 20260506203011 | 26 | 187 | 3.2 | 12.9 | 0.00 | 0.00 | 0.00 | 85 | 1009.4 |
| 20260506202507 | 26 | 132 | 3.2 | 12.9 | 0.00 | 0.00 | 0.00 | 85 | 1009.7 |
| 20260506202009 | 26 | 213 | 3.2 | 9.7 | 0.00 | 0.00 | 0.00 | 84 | 1010.0 |
| 20260506201008 | 26 | 230 | 1.6 | 11.3 | 0.00 | 0.00 | 0.00 | 84 | 1010.0 |
| 20260506200507 | 26 | 173 | 0.0 | 1.6 | 0.00 | 0.00 | 0.00 | 84 | 1009.9 |
| 20260506200009 | 26 | 173 | 0.0 | 4.8 | 0.00 | 0.00 | 0.00 | 84 | 1009.9 |
| 20260506195507 | 26 | 173 | 0.0 | 4.8 | 0.00 | 0.00 | 0.00 | 83 | 1009.8 |
| 20260506195008 | 27 | 168 | 0.0 | 3.2 | 0.00 | 0.00 | 0.00 | 82 | 1009.8 |
| 20260506194511 | 27 | 180 | 0.0 | 3.2 | 0.00 | 0.00 | 0.00 | 82 | 1009.6 |
| 20260506194008 | 27 | 180 | 0.0 | 3.2 | 0.00 | 0.00 | 0.00 | 82 | 1009.7 |
| 20260506193506 | 27 | 219 | 0.0 | 3.2 | 0.00 | 0.00 | 0.00 | 81 | 1009.8 |
| 20260506193008 | 27 | 218 | 0.0 | 1.6 | 0.00 | 0.00 | 0.00 | 81 | 1009.9 |
| 20260506192008 | 27 | 236 | 1.6 | 4.8 | 0.00 | 0.00 | 0.00 | 81 | 1009.9 |
| 20260506191508 | 27 | 240 | 1.6 | 4.8 | 0.00 | 0.00 | 0.00 | 81 | 1009.8 |
| 20260506191008 | 27 | 157 | 1.6 | 4.8 | 0.00 | 0.00 | 0.00 | 80 | 1009.8 |
| 20260506190506 | 27 | 140 | 1.6 | 4.8 | 0.00 | 0.00 | 0.00 | 81 | 1009.9 |
| 20260506185509 | 27 | 169 | 1.6 | 4.8 | 0.00 | 0.00 | 0.00 | 82 | 1010.5 |
| 20260506185008 | 27 | 232 | 0.0 | 4.8 | 0.00 | 0.00 | 0.00 | 83 | 1010.7 |
| 20260506184008 | 26 | 167 | 1.6 | 8.0 | 0.00 | 0.00 | 0.00 | 83 | 1011.1 |
| 20260506183507 | 26 | 196 | 1.6 | 8.0 | 0.00 | 0.00 | 0.00 | 83 | 1011.3 |
| 20260506183009 | 26 | 99 | 1.6 | 8.0 | 0.00 | 0.00 | 0.00 | 83 | 1011.2 |
| 20260506182506 | 26 | 54 | 1.6 | 6.4 | 0.00 | 0.00 | 0.00 | 83 | 1011.6 |
| 20260506182007 | 27 | 202 | 3.2 | 8.0 | 0.00 | 0.00 | 0.00 | 83 | 1011.7 |
| 20260506181508 | 27 | 81 | 3.2 | 8.0 | 0.00 | 0.00 | 0.00 | 83 | 1011.7 |
| 20260506181008 | 27 | 218 | 1.6 | 8.0 | 0.00 | 0.00 | 0.00 | 83 | 1011.9 |
| 20260506180507 | 27 | 175 | 1.6 | 6.4 | 0.00 | 0.00 | 0.00 | 83 | 1012.1 |
| 20260506180010 | 27 | 220 | 1.6 | 9.7 | 0.00 | 0.00 | 0.00 | 83 | 1012.2 |
| 20260506175508 | 27 | 148 | 4.8 | 16.1 | 0.00 | 0.00 | 0.00 | 84 | 1012.1 |
| 20260506174507 | 26 | 189 | 1.6 | 12.9 | 0.00 | 0.00 | 0.00 | 84 | 1012.3 |
| 20260506174009 | 26 | 244 | 1.6 | 9.7 | 0.00 | 0.00 | 0.00 | 85 | 1012.2 |
| 20260506173507 | 26 | 198 | 3.2 | 9.7 | 0.00 | 0.00 | 0.00 | 84 | 1012.2 |
| 20260506173009 | 26 | 220 | 3.2 | 9.7 | 0.00 | 0.00 | 0.00 | 85 | 1012.3 |
| 20260506172509 | 26 | 223 | 3.2 | 9.7 | 0.00 | 0.00 | 0.00 | 86 | 1012.2 |
| 20260506172007 | 26 | 196 | 1.6 | 9.7 | 0.00 | 0.00 | 0.00 | 87 | 1012.2 |
| 20260506171509 | 25 | 172 | 3.2 | 4.8 | 0.00 | 0.00 | 0.00 | 86 | 1012.0 |
| 20260506171010 | 25 | 255 | 3.2 | 14.5 | 0.00 | 0.00 | 0.00 | 86 | 1012.1 |
| 20260506170508 | 25 | 225 | 3.2 | 14.5 | 0.00 | 0.00 | 0.00 | 85 | 1012.2 |
| 20260506170009 | 26 | 190 | 1.6 | 8.0 | 0.00 | 0.00 | 0.00 | 85 | 1012.1 |
| 20260506165006 | 26 | 221 | 1.6 | 11.3 | 0.00 | 0.00 | 0.00 | 85 | 1012.3 |
| 20260506164506 | 26 | 244 | 3.2 | 11.3 | 0.00 | 0.00 | 0.00 | 86 | 1012.3 |
| 20260506164008 | 26 | 217 | 3.2 | 8.0 | 0.00 | 0.00 | 0.00 | 86 | 1012.2 |
| 20260506163506 | 26 | 262 | 3.2 | 11.3 | 0.00 | 0.00 | 0.00 | 87 | 1012.3 |
| 20260506163010 | 26 | 134 | 3.2 | 11.3 | 0.00 | 0.00 | 0.00 | 86 | 1012.2 |
| 20260506162507 | 25 | 227 | 1.6 | 11.3 | 0.00 | 0.00 | 0.00 | 87 | 1012.2 |
| 20260506161506 | 25 | 229 | 3.2 | 9.7 | 0.00 | 0.00 | 0.00 | 87 | 1012.3 |
| 20260506161008 | 25 | 223 | 3.2 | 9.7 | 0.00 | 0.00 | 0.00 | 87 | 1012.3 |
| 20260506160506 | 25 | 53 | 1.6 | 4.8 | 0.00 | 0.00 | 0.00 | 88 | 1012.4 |
| 20260506160013 | 25 | 257 | 1.6 | 9.7 | 0.00 | 0.00 | 0.00 | 88 | 1012.4 |
| 20260506155508 | 25 | 186 | 3.2 | 11.3 | 0.00 | 0.00 | 0.00 | 88 | 1012.4 |
| 20260506155010 | 25 | 260 | 1.6 | 11.3 | 0.00 | 0.00 | 0.00 | 88 | 1012.3 |
| 20260506154511 | 25 | 182 | 1.6 | 4.8 | 0.00 | 0.00 | 0.00 | 88 | 1012.3 |
| 20260506154008 | 25 | 187 | 1.6 | 6.4 | 0.00 | 0.00 | 0.00 | 88 | 1012.2 |
| 20260506153506 | 25 | 86 | 1.6 | 6.4 | 0.00 | 0.00 | 0.00 | 87 | 1012.1 |
| 20260506153009 | 25 | 257 | 1.6 | 8.0 | 0.00 | 0.00 | 0.00 | 87 | 1012.0 |
| 20260506152507 | 25 | 229 | 1.6 | 11.3 | 0.00 | 0.00 | 0.00 | 87 | 1012.1 |
| 20260506152008 | 25 | 156 | 1.6 | 11.3 | 0.00 | 0.00 | 0.00 | 87 | 1011.9 |
| 20260506151507 | 25 | 225 | 1.6 | 9.7 | 0.00 | 0.00 | 0.00 | 87 | 1011.9 |
| 20260506151009 | 25 | 168 | 3.2 | 14.5 | 0.00 | 0.00 | 0.00 | 87 | 1011.7 |
| 20260506150506 | 25 | 238 | 3.2 | 14.5 | 0.00 | 0.00 | 0.00 | 88 | 1011.8 |
| 20260506150011 | 25 | 191 | 1.6 | 11.3 | 0.00 | 0.00 | 0.00 | 88 | 1011.7 |
| 20260506145507 | 25 | 113 | 1.6 | 6.4 | 0.00 | 0.00 | 0.00 | 89 | 1011.7 |
| 20260506145009 | 25 | 259 | 4.8 | 12.9 | 0.00 | 0.00 | 0.00 | 89 | 1011.7 |
| 20260506144510 | 25 | 232 | 3.2 | 14.5 | 0.00 | 0.00 | 0.00 | 90 | 1011.7 |
| 20260506144007 | 24 | 143 | 1.6 | 8.0 | 0.00 | 0.00 | 0.00 | 91 | 1011.7 |
| 20260506143506 | 24 | 164 | 1.6 | 6.4 | 0.00 | 0.00 | 0.00 | 91 | 1011.6 |
| 20260506143009 | 24 | 86 | 1.6 | 4.8 | 0.00 | 0.00 | 0.00 | 91 | 1011.7 |
| 20260506142008 | 23 | 149 | 1.6 | 8.0 | 0.00 | 0.00 | 0.00 | 92 | 1011.7 |
| 20260506141506 | 23 | 196 | 1.6 | 4.8 | 0.00 | 0.00 | 0.00 | 92 | 1011.7 |
| 20260506141008 | 23 | 253 | 0.0 | 3.2 | 0.00 | 0.00 | 0.00 | 92 | 1011.7 |
| 20260506140507 | 23 | 238 | 1.6 | 6.4 | 0.00 | 0.00 | 0.00 | 93 | 1011.6 |
| 20260506140009 | 23 | 200 | 0.0 | 6.4 | 0.00 | 0.00 | 0.00 | 93 | 1011.7 |
| 20260506135506 | 23 | 188 | 0.0 | 0.0 | 0.00 | 0.00 | 0.00 | 93 | 1011.6 |
| 20260506135007 | 23 | 188 | 0.0 | 0.0 | 0.00 | 0.00 | 0.00 | 93 | 1011.6 |
| 20260506134506 | 22 | 217 | 0.0 | 0.0 | 0.00 | 0.00 | 0.00 | 94 | 1011.7 |
| 20260506134008 | 22 | 161 | 0.0 | 0.0 | 0.00 | 0.00 | 0.00 | 93 | 1011.6 |
| 20260506133506 | 22 | 162 | 0.0 | 0.0 | 0.00 | 0.00 | 0.00 | 93 | 1011.7 |
| 20260506133008 | 22 | 184 | 0.0 | 3.2 | 0.00 | 0.00 | 0.00 | 93 | 1011.6 |
| 20260506132507 | 22 | 184 | 0.0 | 3.2 | 0.00 | 0.00 | 0.00 | 93 | 1011.6 |
| 20260506132007 | 22 | 194 | 0.0 | 3.2 | 0.00 | 0.00 | 0.00 | 93 | 1011.6 |
| 20260506131507 | 22 | 191 | 0.0 | 0.0 | 0.00 | 0.00 | 0.00 | 93 | 1011.5 |
| 20260506131008 | 22 | 192 | 0.0 | 1.6 | 0.00 | 0.00 | 0.00 | 93 | 1011.5 |
| 20260506130506 | 22 | 192 | 0.0 | 1.6 | 0.00 | 0.00 | 0.00 | 93 | 1011.4 |
| 20260506125506 | 22 | 192 | 0.0 | 3.2 | 0.00 | 0.00 | 0.00 | 93 | 1011.4 |
| 20260506125008 | 22 | 258 | 0.0 | 3.2 | 0.00 | 0.00 | 0.00 | 93 | 1011.4 |
| 20260506124008 | 22 | 205 | 0.0 | 3.2 | 0.00 | 0.00 | 0.00 | 93 | 1011.3 |
| 20260506123507 | 22 | 205 | 0.0 | 1.6 | 0.00 | 0.00 | 0.00 | 93 | 1011.3 |
| 20260506122506 | 22 | 223 | 1.6 | 4.8 | 0.00 | 0.00 | 0.00 | 92 | 1011.0 |
| 20260506121007 | 22 | 183 | 0.0 | 4.8 | 0.00 | 0.00 | 0.00 | 92 | 1010.8 |
| 20260506120507 | 22 | 196 | 0.0 | 1.6 | 0.00 | 0.00 | 0.00 | 92 | 1010.6 |
| 20260506120009 | 22 | 196 | 0.0 | 1.6 | 0.00 | 0.00 | 0.00 | 92 | 1010.8 |
| 20260506115507 | 22 | 219 | 0.0 | 0.0 | 0.00 | 0.00 | 0.00 | 92 | 1010.8 |
| 20260506115009 | 22 | 219 | 0.0 | 3.2 | 0.00 | 0.00 | 0.00 | 92 | 1010.7 |
| 20260506114508 | 22 | 219 | 0.0 | 3.2 | 0.00 | 0.00 | 0.00 | 92 | 1010.6 |
| 20260506114006 | 22 | 194 | 0.0 | 3.2 | 0.00 | 0.00 | 0.00 | 92 | 1010.4 |
| 20260506111006 | 22 | 249 | 0.0 | 4.8 | 0.00 | 0.00 | 0.00 | 91 | 1010.1 |
| 20260506110507 | 22 | 236 | 0.0 | 0.0 | 0.00 | 0.00 | 0.00 | 91 | 1010.1 |
| 20260506110007 | 22 | 172 | 0.0 | 0.0 | 0.00 | 0.00 | 0.00 | 91 | 1010.0 |
| 20260506105505 | 22 | 236 | 0.0 | 0.0 | 0.00 | 0.00 | 0.00 | 91 | 1010.0 |
| 20260506104506 | 22 | 236 | 0.0 | 3.2 | 0.00 | 0.00 | 0.00 | 91 | 1010.1 |
| 20260506104006 | 22 | 236 | 1.6 | 6.4 | 0.00 | 0.00 | 0.00 | 91 | 1010.1 |
| 20260506103506 | 22 | 237 | 1.6 | 6.4 | 0.00 | 0.00 | 0.00 | 91 | 1009.9 |
| 20260506102506 | 22 | 229 | 1.6 | 6.4 | 0.00 | 0.00 | 0.00 | 91 | 1009.9 |
| 20260506102008 | 22 | 223 | 1.6 | 6.4 | 0.00 | 0.00 | 0.00 | 91 | 1009.8 |
| 20260506101506 | 22 | 234 | 1.6 | 6.4 | 0.00 | 0.00 | 0.00 | 90 | 1009.7 |
| 20260506100505 | 22 | 176 | 0.0 | 4.8 | 0.00 | 0.00 | 0.00 | 90 | 1009.9 |
| 20260506100008 | 22 | 233 | 1.6 | 6.4 | 0.00 | 0.00 | 0.00 | 90 | 1009.9 |
| 20260506095507 | 22 | 232 | 1.6 | 14.5 | 0.00 | 0.00 | 0.00 | 90 | 1009.7 |
| 20260506095006 | 22 | 285 | 1.6 | 6.4 | 0.00 | 0.00 | 0.00 | 90 | 1009.6 |
| 20260506094506 | 22 | 209 | 1.6 | 4.8 | 0.00 | 0.00 | 0.00 | 90 | 1009.7 |
| 20260506094007 | 22 | 224 | 1.6 | 6.4 | 0.00 | 0.00 | 0.00 | 90 | 1009.7 |